.
WxDataArchive / Data Records for 2013-10-06
2013-10-05 October 2013 2013-10-07

Data Records for Sunday, 06 October 2013

Time	Temp	Chill	HIndex	Humid	Dewpt	 Wind 	HiWind	WindDir	Rain 	Barom 
-----	----	-----	------	-----	-----	------	------	-------	-----	----- 
00:00	69.4	69.4	69.4	93	67.3	0	2	338	0.00	29.846 
00:05	69.4	69.4	69.4	93	67.3	0	2	338	0.00	29.846 
00:10	69.4	69.4	69.4	93	67.3	0	1	338	0.00	29.846 
00:15	69.4	69.4	69.4	93	67.3	0	1	338	0.00	29.843 
00:20	69.4	69.4	69.4	93	67.3	0	2	338	0.00	29.843 
00:25	69.3	69.3	69.3	93	67.2	0	2	338	0.00	29.843 
00:30	69.3	69.3	69.3	93	67.2	0	2	338	0.00	29.836 
00:35	69.3	69.3	69.3	93	67.2	0	1	338	0.00	29.836 
00:40	69.1	69.1	69.1	93	67.0	0	2	270	0.00	29.836 
00:45	69.1	69.1	69.1	93	67.0	0	2	270	0.00	29.835 
00:50	69.1	69.1	69.1	93	67.0	0	1	292	0.00	29.835 
00:55	69.1	69.1	69.1	93	67.0	0	3	90	0.00	29.835 
01:00	69.1	69.1	69.1	93	67.0	0	1	90	0.00	29.827 
01:05	69.1	69.1	69.1	92	66.7	0	1	90	0.00	29.827 
01:10	69.1	69.1	69.1	92	66.7	0	2	90	0.00	29.827 
01:15	69.1	69.1	69.1	92	66.7	0	1	90	0.00	29.826 
01:20	68.9	68.9	68.9	92	66.5	0	1	90	0.00	29.826 
01:25	68.9	68.9	68.9	92	66.5	0	1	90	0.00	29.826 
01:30	68.9	68.9	68.9	92	66.5	0	1	90	0.00	29.825 
01:35	68.8	68.8	68.8	92	66.4	0	1	90	0.00	29.825 
01:40	68.8	68.8	68.8	92	66.4	0	2	90	0.00	29.825 
01:45	68.6	68.6	68.6	92	66.2	0	1	90	0.00	29.823 
01:50	68.6	68.6	68.6	92	66.2	0	2	90	0.00	29.823 
01:55	68.4	68.4	68.4	92	66.0	0	1	90	0.00	29.823 
02:00	68.3	68.3	68.3	92	65.9	0	2	90	0.00	29.811 
02:05	68.1	68.1	68.1	92	65.7	0	1	90	0.00	29.811 
02:10	67.9	67.9	67.9	92	65.5	0	1	90	0.00	29.811 
02:15	67.9	67.9	67.9	92	65.5	0	1	90	0.00	29.816 
02:20	67.8	67.8	67.8	92	65.4	0	2	90	0.00	29.816 
02:25	67.6	67.6	67.6	91	64.9	0	4	270	0.00	29.816 
02:30	67.4	67.4	67.4	91	64.7	0	2	270	0.00	29.825 
02:35	67.3	67.3	67.3	90	64.3	0	4	270	0.00	29.825 
02:40	67.3	67.3	67.3	90	64.3	0	5	45	0.00	29.825 
02:45	67.3	67.3	67.3	90	64.3	0	3	45	0.00	29.816 
02:50	67.3	67.3	67.3	90	64.3	0	2	45	0.00	29.816 
02:55	67.3	67.3	67.3	90	64.3	0	1	45	0.00	29.816 
03:00	67.3	67.3	67.3	90	64.3	0	2	45	0.00	29.818 
03:05	67.3	67.3	67.3	90	64.3	0	4	22	0.00	29.818 
03:10	67.3	67.3	67.3	90	64.3	1	4	90	0.00	29.818 
03:15	67.3	67.3	67.3	90	64.3	0	2	292	0.00	29.814 
03:20	67.3	67.3	67.3	90	64.3	0	4	248	0.00	29.814 
03:25	67.1	67.1	67.1	90	64.1	0	5	90	0.00	29.814 
03:30	67.1	67.1	67.1	90	64.1	0	3	68	0.00	29.810 
03:35	67.1	67.1	67.1	90	64.1	0	2	68	0.00	29.810 
03:40	66.9	66.9	66.9	90	63.9	1	4	112	0.00	29.810 
03:45	66.9	66.9	66.9	90	63.9	0	2	112	0.00	29.807 
03:50	66.8	66.8	66.8	90	63.8	0	4	112	0.00	29.807 
03:55	66.8	66.8	66.8	91	64.1	0	2	90	0.01	29.807 
04:00	66.6	66.6	66.6	91	63.9	1	4	68	0.00	29.797 
04:05	66.6	66.6	66.6	91	63.9	0	3	68	0.01	29.797 
04:10	66.4	66.4	66.4	92	64.0	0	2	90	0.00	29.797 
04:15	66.4	66.4	66.4	92	64.0	0	2	90	0.01	29.794 
04:20	66.3	66.3	66.3	92	63.9	0	3	90	0.01	29.794 
04:25	66.3	66.3	66.3	92	63.9	1	5	112	0.00	29.794 
04:30	66.1	66.1	66.1	92	63.7	1	3	90	0.00	29.780 
04:35	66.0	66.0	66.0	93	63.9	1	5	90	0.01	29.780 
04:40	66.0	66.0	66.0	93	63.9	1	5	90	0.00	29.780 
04:45	66.0	66.0	66.0	93	63.9	1	4	90	0.00	29.781 
04:50	65.8	65.8	65.8	93	63.7	0	2	90	0.01	29.781 
04:55	65.8	65.8	65.8	93	63.7	1	3	90	0.00	29.781 
05:00	65.8	65.8	65.8	93	63.7	1	3	90	0.01	29.779 
05:05	65.8	65.8	65.8	93	63.7	1	6	90	0.00	29.779 
05:10	65.6	65.6	65.6	94	63.8	1	6	68	0.01	29.779 
05:15	65.6	65.6	65.6	94	63.8	1	3	68	0.00	29.780 
05:20	65.6	65.6	65.6	94	63.8	0	4	90	0.01	29.780 
05:25	65.6	65.6	65.6	94	63.8	0	3	45	0.01	29.780 
05:30	65.6	65.6	65.6	94	63.8	2	4	90	0.00	29.770 
05:35	65.6	65.6	65.6	94	63.8	1	4	112	0.01	29.770 
05:40	65.6	65.6	65.6	94	63.8	1	4	112	0.01	29.770 
05:45	65.6	65.6	65.6	94	63.8	1	5	90	0.01	29.753 
05:50	65.6	65.6	65.6	94	63.8	2	4	45	0.00	29.753 
05:55	65.5	65.5	65.5	94	63.7	1	3	270	0.00	29.753 
06:00	65.5	65.5	65.5	94	63.7	0	2	45	0.01	29.775 
06:05	65.5	65.5	65.5	95	64.0	1	3	45	0.00	29.775 
06:10	65.5	65.5	65.5	95	64.0	1	4	90	0.00	29.775 
06:15	65.5	65.5	65.5	95	64.0	0	3	45	0.01	29.777 
06:20	65.5	65.5	65.5	95	64.0	0	2	45	0.00	29.777 
06:25	65.5	65.5	65.5	95	64.0	1	5	90	0.00	29.777 
06:30	65.3	65.3	65.3	95	63.8	1	5	112	0.01	29.775 
06:35	65.3	65.3	65.3	95	63.8	1	4	90	0.00	29.775 
06:40	65.3	65.3	65.3	95	63.8	0	3	68	0.00	29.775 
06:45	65.2	65.2	65.2	95	63.7	1	3	68	0.00	29.774 
06:50	65.2	65.2	65.2	95	63.7	0	3	315	0.00	29.774 
06:55	65.2	65.2	65.2	95	63.7	0	2	22	0.00	29.774 
07:00	65.2	65.2	65.2	95	63.7	0	2	22	0.00	29.778 
07:05	65.0	65.0	65.0	95	63.5	0	2	22	0.00	29.778 
07:10	65.0	65.0	65.0	95	63.5	0	2	45	0.00	29.778 
07:15	65.0	65.0	65.0	95	63.5	0	1	45	0.01	29.774 
07:20	65.0	65.0	65.0	95	63.5	0	1	45	0.00	29.774 
07:25	65.0	65.0	65.0	95	63.5	0	2	45	0.00	29.774 
07:30	65.0	65.0	65.0	95	63.5	1	5	112	0.00	29.770 
07:35	65.0	65.0	65.0	95	63.5	1	4	112	0.00	29.770 
07:40	65.0	65.0	65.0	95	63.5	1	3	112	0.00	29.770 
07:45	65.0	65.0	65.0	95	63.5	0	3	112	0.00	29.762 
07:50	65.0	65.0	65.0	95	63.5	0	2	112	0.00	29.762 
07:55	65.0	65.0	65.0	95	63.5	0	4	112	0.01	29.762 
08:00	65.0	65.0	65.0	95	63.5	0	2	112	0.00	29.757 
08:05	65.0	65.0	65.0	95	63.5	0	3	112	0.00	29.757 
08:10	65.0	65.0	65.0	95	63.5	1	4	112	0.00	29.757 
08:15	65.0	65.0	65.0	95	63.5	1	4	90	0.00	29.758 
08:20	65.0	65.0	65.0	95	63.5	1	2	90	0.00	29.758 
08:25	65.0	65.0	65.0	95	63.5	1	3	90	0.00	29.758 
08:30	65.0	65.0	65.0	95	63.5	1	3	90	0.00	29.750 
08:35	65.0	65.0	65.0	95	63.5	0	3	90	0.00	29.750 
08:40	64.8	64.8	64.8	95	63.3	0	2	68	0.01	29.750 
08:45	64.8	64.8	64.8	95	63.3	1	3	112	0.00	29.741 
08:50	64.7	64.7	64.7	95	63.2	1	3	112	0.00	29.741 
08:55	64.7	64.7	64.7	95	63.2	0	3	112	0.01	29.741 
09:00	64.5	64.5	64.5	95	63.0	1	3	270	0.00	29.736 
09:05	64.5	64.5	64.5	95	63.0	0	1	270	0.00	29.736 
09:10	64.5	64.5	64.5	95	63.0	0	2	292	0.00	29.736 
09:15	64.5	64.5	64.5	95	63.0	0	1	292	0.00	29.742 
09:20	64.5	64.5	64.5	95	63.0	1	3	292	0.00	29.742 
09:25	64.5	64.5	64.5	95	63.0	0	4	112	0.00	29.742 
09:30	64.5	64.5	64.5	95	63.0	1	3	112	0.00	29.740 
09:35	64.5	64.5	64.5	95	63.0	0	2	90	0.00	29.740 
09:40	64.5	64.5	64.5	95	63.0	1	3	90	0.00	29.740 
09:45	64.5	64.5	64.5	95	63.0	1	3	90	0.00	29.740 
09:50	64.5	64.5	64.5	95	63.0	1	3	158	0.00	29.740 
09:55	64.5	64.5	64.5	95	63.0	1	4	112	0.00	29.740 
10:00	64.5	64.5	64.5	95	63.0	1	3	112	0.00	29.742 
10:05	64.5	64.5	64.5	95	63.0	0	3	68	0.00	29.742 
10:10	64.5	64.5	64.5	95	63.0	1	3	90	0.00	29.742 
10:15	64.5	64.5	64.5	95	63.0	1	6	68	0.00	29.737 
10:20	64.5	64.5	64.5	94	62.7	1	4	68	0.00	29.737 
10:25	64.7	64.7	64.7	94	62.9	1	3	112	0.00	29.737 
10:30	64.7	64.7	64.7	94	62.9	1	5	112	0.00	29.734 
10:35	64.8	64.8	64.8	94	63.0	1	4	90	0.00	29.734 
10:40	64.8	64.8	64.8	94	63.0	1	6	90	0.00	29.734 
10:45	65.0	65.0	65.0	94	63.2	1	3	112	0.00	29.735 
10:50	65.0	65.0	65.0	94	63.2	1	4	90	0.00	29.735 
10:55	65.0	65.0	65.0	94	63.2	1	5	90	0.00	29.735 
11:00	65.0	65.0	65.0	94	63.2	1	3	90	0.00	29.737 
11:05	65.2	65.2	65.2	94	63.4	2	6	270	0.00	29.737 
11:10	65.2	65.2	65.2	94	63.4	1	5	90	0.00	29.737 
11:15	65.2	65.2	65.2	94	63.4	1	5	90	0.00	29.734 
11:20	65.2	65.2	65.2	94	63.4	1	3	68	0.00	29.734 
11:25	65.3	65.3	65.3	94	63.5	1	3	68	0.00	29.734 
11:30	65.3	65.3	65.3	93	63.2	1	3	90	0.01	29.732 
11:35	65.2	65.2	65.2	93	63.1	1	3	338	0.00	29.732 
11:40	65.2	65.2	65.2	93	63.1	0	3	112	0.00	29.732 
11:45	65.2	65.2	65.2	94	63.4	1	3	112	0.00	29.729 
11:50	65.2	65.2	65.2	93	63.1	2	6	90	0.00	29.729 
11:55	65.2	65.2	65.2	93	63.1	2	7	90	0.00	29.729 
12:00	65.2	65.2	65.2	93	63.1	1	4	112	0.00	29.724 
12:05	65.3	65.3	65.3	93	63.2	1	4	112	0.00	29.724 
12:10	65.5	65.5	65.5	93	63.4	1	5	112	0.00	29.724 
12:15	65.5	65.5	65.5	93	63.4	1	4	90	0.00	29.717 
12:20	65.8	65.8	65.8	93	63.7	1	4	45	0.00	29.717 
12:25	66.0	66.0	66.0	93	63.9	1	4	112	0.00	29.717 
12:30	66.1	66.1	66.1	92	63.7	1	3	90	0.00	29.708 
12:35	66.1	66.1	66.1	92	63.7	1	5	90	0.00	29.708 
12:40	66.3	66.3	66.3	92	63.9	1	3	90	0.00	29.708 
12:45	66.3	66.3	66.3	92	63.9	1	6	90	0.00	29.704 
12:50	66.3	66.3	66.3	92	63.9	1	4	135	0.00	29.704 
12:55	66.3	66.3	66.3	92	63.9	1	5	112	0.00	29.704 
13:00	66.4	66.4	66.4	92	64.0	1	2	68	0.00	29.693 
13:05	66.4	66.4	66.4	91	63.7	1	3	0	0.00	29.693 
13:10	66.6	66.6	66.6	91	63.9	1	4	90	0.00	29.693 
13:15	64.5	64.5	64.5	88	60.9	2	4	270	0.00	29.710 
13:20	62.0	62.0	62.0	87	58.1	3	6	270	0.01	29.710 
13:25	60.1	60.1	60.1	89	56.8	4	7	270	0.01	29.710 
13:30	59.2	59.2	59.2	90	56.3	3	6	270	0.00	29.721 
13:35	58.9	58.9	58.9	92	56.6	1	5	270	0.00	29.721 
13:40	58.6	58.6	58.6	92	56.3	2	5	270	0.00	29.721 
13:45	58.3	58.3	58.3	92	56.0	3	5	292	0.00	29.714 
13:50	58.3	58.3	58.3	93	56.3	1	3	292	0.00	29.714 
13:55	58.1	58.1	58.1	93	56.1	3	5	270	0.00	29.714 
14:00	58.1	58.1	58.1	93	56.1	2	5	270	0.00	29.705 
14:05	58.1	58.1	58.1	93	56.1	0	3	270	0.00	29.705 
14:10	58.1	58.1	58.1	93	56.1	1	4	270	0.00	29.705 
14:15	58.3	58.3	58.3	93	56.3	1	3	270	0.00	29.697 
14:20	58.4	58.4	58.4	93	56.4	0	1	270	0.00	29.697 
14:25	58.3	58.3	58.3	93	56.3	0	1	270	0.00	29.697 
14:30	58.1	58.1	58.1	93	56.1	0	1	270	0.01	29.685 
14:35	58.0	58.0	58.0	93	56.0	0	2	270	0.00	29.685 
14:40	58.0	58.0	58.0	93	56.0	1	2	270	0.00	29.685 
14:45	57.8	57.8	57.8	94	56.1	1	3	270	0.01	29.699 
14:50	57.5	57.5	57.5	94	55.8	1	4	270	0.01	29.699 
14:55	57.5	57.5	57.5	94	55.8	0	2	270	0.02	29.699 
15:00	57.3	57.3	57.3	94	55.6	1	5	270	0.03	29.713 
15:05	56.5	56.5	56.5	93	54.5	2	4	270	0.03	29.713 
15:10	56.0	56.0	56.0	94	54.3	2	5	270	0.03	29.713 
15:15	55.9	55.9	55.9	94	54.2	1	3	292	0.03	29.713 
15:20	55.3	55.3	55.3	94	53.6	2	5	292	0.03	29.713 
15:25	55.3	55.3	55.3	94	53.6	1	3	292	0.00	29.713 
15:30	55.3	55.3	55.3	95	53.9	0	1	292	0.00	29.705 
15:35	55.4	55.4	55.4	95	54.0	0	1	292	0.01	29.705 
15:40	55.4	55.4	55.4	95	54.0	0	1	292	0.01	29.705 
15:45	55.4	55.4	55.4	95	54.0	0	1	292	0.01	29.705 
15:50	55.4	55.4	55.4	95	54.0	0	1	292	0.03	29.705 
15:55	55.6	55.6	55.6	95	54.2	0	1	292	0.01	29.705 
16:00	55.7	55.7	55.7	95	54.3	0	1	292	0.00	29.702 
16:05	55.9	55.9	55.9	95	54.5	0	1	292	0.00	29.702 
16:10	55.9	55.9	55.9	95	54.5	0	1	292	0.00	29.702 
16:15	56.2	56.2	56.2	95	54.8	0	1	292	0.00	29.700 
16:20	56.5	56.5	56.5	96	55.4	0	2	292	0.00	29.700 
16:25	56.7	56.7	56.7	95	55.3	0	2	292	0.00	29.700 
16:30	56.6	56.6	56.6	95	55.2	0	1	292	0.00	29.703 
16:35	56.6	56.6	56.6	95	55.2	0	2	292	0.00	29.703 
16:40	56.7	56.7	56.7	96	55.6	0	2	292	0.00	29.703 
16:45	56.7	56.7	56.7	95	55.3	0	2	292	0.00	29.703 
16:50	56.7	56.7	56.7	95	55.3	0	1	292	0.00	29.703 
16:55	56.6	56.6	56.6	95	55.2	0	1	292	0.00	29.703 
17:00	56.6	56.6	56.6	96	55.5	0	1	292	0.00	29.703 
17:05	56.6	56.6	56.6	95	55.2	0	1	292	0.00	29.703 
17:10	56.5	56.5	56.5	95	55.1	0	1	292	0.00	29.703 
17:15	56.3	56.3	56.3	95	54.9	0	1	292	0.00	29.700 
17:20	56.3	56.3	56.3	95	54.9	0	1	292	0.00	29.700 
17:25	56.0	56.0	56.0	95	54.6	0	1	292	0.00	29.700 
17:30	55.7	55.7	55.7	95	54.3	0	2	292	0.00	29.701 
17:35	55.6	55.6	55.6	95	54.2	0	2	292	0.00	29.701 
17:40	55.6	55.6	55.6	94	53.9	0	2	292	0.00	29.701 
17:45	55.4	55.4	55.4	94	53.7	0	2	292	0.00	29.709 
17:50	55.4	55.4	55.4	93	53.4	0	2	292	0.00	29.709 
17:55	55.4	55.4	55.4	93	53.4	0	1	292	0.00	29.709 
18:00	55.4	55.4	55.4	93	53.4	0	0	---	0.00	29.710 
18:05	55.4	55.4	55.4	93	53.4	0	0	---	0.00	29.710 
18:10	55.4	55.4	55.4	92	53.1	0	0	---	0.00	29.710 
18:15	55.4	55.4	55.4	92	53.1	0	0	---	0.00	29.706 
18:20	55.6	55.6	55.6	92	53.3	0	0	---	0.00	29.706 
18:25	55.7	55.7	55.7	92	53.4	0	0	---	0.00	29.706 
18:30	55.9	55.9	55.9	92	53.6	0	0	---	0.00	29.719 
18:35	55.7	55.7	55.7	92	53.4	0	0	---	0.00	29.719 
18:40	55.7	55.7	55.7	92	53.4	0	0	---	0.00	29.719 
18:45	55.6	55.6	55.6	92	53.3	0	0	---	0.00	29.723 
18:50	55.6	55.6	55.6	92	53.3	0	0	---	0.00	29.723 
18:55	55.6	55.6	55.6	92	53.3	0	0	---	0.00	29.723 
19:00	55.4	55.4	55.4	92	53.1	0	0	---	0.00	29.732 
19:05	55.4	55.4	55.4	92	53.1	0	0	---	0.00	29.732 
19:10	55.3	55.3	55.3	92	53.0	0	0	---	0.00	29.732 
19:15	55.1	55.1	55.1	92	52.8	0	0	---	0.00	29.731 
19:20	55.0	55.0	55.0	92	52.7	0	0	---	0.00	29.731 
19:25	54.8	54.8	54.8	92	52.5	0	0	---	0.00	29.731 
19:30	54.7	54.7	54.7	92	52.4	0	0	---	0.00	29.734 
19:35	54.5	54.5	54.5	92	52.2	0	0	---	0.00	29.734 
19:40	54.5	54.5	54.5	93	52.5	0	0	---	0.00	29.734 
19:45	54.5	54.5	54.5	93	52.5	0	0	---	0.00	29.730 
19:50	54.4	54.4	54.4	93	52.4	0	0	---	0.00	29.730 
19:55	54.2	54.2	54.2	93	52.2	0	0	---	0.00	29.730 
20:00	54.2	54.2	54.2	93	52.2	0	0	---	0.00	29.735 
20:05	54.2	54.2	54.2	93	52.2	0	0	---	0.00	29.735 
20:10	54.1	54.1	54.1	94	52.4	0	0	---	0.00	29.735 
20:15	54.1	54.1	54.1	94	52.4	0	0	---	0.00	29.729 
20:20	54.1	54.1	54.1	94	52.4	0	0	---	0.00	29.729 
20:25	54.1	54.1	54.1	94	52.4	0	0	---	0.00	29.729 
20:30	54.1	54.1	54.1	94	52.4	0	0	---	0.00	29.737 
20:35	54.1	54.1	54.1	94	52.4	0	0	---	0.00	29.737 
20:40	54.2	54.2	54.2	94	52.5	0	0	---	0.00	29.737 
20:45	54.2	54.2	54.2	94	52.5	0	0	---	0.00	29.732 
20:50	54.2	54.2	54.2	94	52.5	0	0	---	0.00	29.732 
20:55	54.4	54.4	54.4	95	53.0	0	0	---	0.00	29.732 
21:00	54.5	54.5	54.5	95	53.1	0	0	---	0.00	29.735 
21:05	54.8	54.8	54.8	95	53.4	0	0	---	0.00	29.735 
21:10	54.8	54.8	54.8	95	53.4	0	0	---	0.00	29.735 
21:15	55.0	55.0	55.0	95	53.6	0	1	292	0.00	29.735 
21:20	55.1	55.1	55.1	95	53.7	0	1	292	0.00	29.735 
21:25	55.1	55.1	55.1	95	53.7	0	0	---	0.00	29.735 
21:30	55.3	55.3	55.3	95	53.9	0	1	292	0.00	29.732 
21:35	55.3	55.3	55.3	95	53.9	0	1	292	0.00	29.732 
21:40	55.4	55.4	55.4	95	54.0	0	1	292	0.00	29.732 
21:45	55.6	55.6	55.6	95	54.2	0	1	292	0.00	29.743 
21:50	54.8	54.8	54.8	93	52.8	1	9	248	0.00	29.743 
21:55	53.5	53.5	53.5	92	51.2	1	7	270	0.00	29.743 
22:00	53.2	53.2	53.2	88	49.7	1	4	292	0.00	29.757 
22:05	53.1	53.1	53.1	82	47.8	1	3	292	0.00	29.757 
22:10	53.2	53.2	53.2	81	47.5	1	3	292	0.00	29.757 
22:15	53.2	53.2	53.2	79	46.9	1	3	292	0.00	29.769 
22:20	53.2	53.2	53.2	77	46.2	1	4	292	0.00	29.769 
22:25	53.1	53.1	53.1	75	45.4	2	7	292	0.00	29.769 
22:30	53.1	53.1	53.1	73	44.7	1	3	248	0.00	29.771 
22:35	53.1	53.1	53.1	74	45.0	1	4	248	0.00	29.771 
22:40	52.9	52.9	52.9	73	44.5	1	5	270	0.00	29.771 
22:45	52.9	52.9	52.9	74	44.8	1	6	315	0.00	29.775 
22:50	52.9	52.9	52.9	74	44.8	0	3	315	0.00	29.775 
22:55	52.8	52.8	52.8	74	44.7	0	2	292	0.00	29.775 
23:00	52.8	52.8	52.8	74	44.7	1	3	292	0.00	29.774 
23:05	52.6	52.6	52.6	74	44.6	1	3	292	0.00	29.774 
23:10	52.3	52.3	52.3	73	43.9	1	5	292	0.00	29.774 
23:15	52.2	52.2	52.2	73	43.8	0	2	270	0.00	29.773 
23:20	51.7	51.7	51.7	71	42.6	1	4	292	0.00	29.773 
23:25	51.4	51.4	51.4	70	41.9	1	4	270	0.00	29.773 
23:30	51.0	51.0	51.0	69	41.2	1	5	270	0.00	29.774 
23:35	50.7	50.7	50.7	68	40.5	1	4	270	0.00	29.774 
23:40	50.5	50.5	50.5	69	40.7	0	2	270	0.00	29.774 
23:45	50.2	50.2	50.2	69	40.4	0	2	270	0.00	29.779 
23:50	50.1	50.1	50.1	70	40.7	1	4	270	0.00	29.779 
23:55	49.9	49.9	49.9	70	40.5	0	2	270	0.00	29.779 

CoCoRaHS
IN-AL-39
A2 Web Hosting
Creative Commons License
GoDaddy
search engine by freefind advanced

loaded 2018-11-20 15:38:59 • last modified 2010-11-18 10:43:29
Privacy PolicyDisclaimer
• wx.awcolley.com is powered by PmWiki v.2002016 •
• all content (unless otherwise noted) © 2018 A W Colley